Weather reports worldwide

Advertisment
Mont-De-Marsan, France (7607): temperature & dewpoint: 05.12.2019 09:00:00 - 11.12.2019 09:00:00 (CET)Mont-De-Marsan, France (7607): temperature 5cm: 05.12.2019 09:00:00 - 11.12.2019 09:00:00 (CET)Mont-De-Marsan, France (7607): temperature -20cm & temperature -100cm: 05.12.2019 09:00:00 - 11.12.2019 09:00:00 (CET)Mont-De-Marsan, France (7607): wind speed & gusts: 05.12.2019 09:00:00 - 11.12.2019 09:00:00 (CET)Mont-De-Marsan, France (7607): wind direction: 05.12.2019 09:00:00 - 11.12.2019 09:00:00 (CET)Mont-De-Marsan, France (7607): reduced air pressure: 05.12.2019 09:00:00 - 11.12.2019 09:00:00 (CET)Mont-De-Marsan, France (7607): visibility: 05.12.2019 09:00:00 - 11.12.2019 09:00:00 (CET)Mont-De-Marsan, France (7607): sunshine duration: 05.12.2019 09:00:00 - 11.12.2019 09:00:00 (CET)Mont-De-Marsan, France (7607): precipitation: 05.12.2019 09:00:00 - 11.12.2019 09:00:00 (CET)
Date & Time tt [°C] td [°C] tt 5cm [°C] tt -20cm [°C] tt -100cm [°C] ff [km/h] ff [kn] fx [km/h] fx [kn] dd ppp [hPa] vv [km] sd [min] rr [mm]
11.12.2019 09:00:00 7,9 6,8 6,4 9,2 11,6 6 3 10 5 SW 1018,0 46 0 0,0
11.12.2019 08:00:00 7,0 5,9 6,3 9,2 11,6 4 2 31 17 W 1017,8 20 0 0,0
11.12.2019 07:00:00 7,0 5,8 6,6 9,2 11,6 5 3 10 6 ENE 1016,7 20 0 0,2
11.12.2019 06:00:00 6,9 5,7 6,5 9,2 11,6 3 2 10 5 E 1017,2 20 0 0,0
11.12.2019 05:00:00 6,8 5,4 6,5 9,2 11,6 6 4 9 5 ENE 1017,6 20 0 0,0
11.12.2019 04:00:00 6,7 5,3 5,9 9,3 11,6 3 1 9 5 ENE 1018,8 18 0 0,0
11.12.2019 03:00:00 6,5 5,0 6,1 9,4 11,6 6 3 9 5 E 1019,2 20 0 0,0
11.12.2019 02:00:00 6,1 4,6 5,1 9,4 11,6 4 2 6 3 ENE 1020,2 20 0 0,0
11.12.2019 01:00:00 6,7 5,2 5,9 9,5 11,6 4 2 10 5 E 1020,9 20 0 0,0
11.12.2019 00:00:00 6,2 4,8 5,7 9,5 11,6 4 2 8 5 E 1021,4 20 0 0,0
10.12.2019 23:00:00 6,0 4,8 5,5 9,6 11,6 6 3 11 6 E 1021,6 19 0 0,0
10.12.2019 22:00:00 5,7 4,7 3,4 9,7 11,6 6 3 9 5 E 1022,2 17 0 0,0
10.12.2019 21:00:00 4,8 3,6 2,4 9,8 11,6 5 3 10 5 ENE 1023,1 18 0 0,0
10.12.2019 20:00:00 5,1 3,4 2,7 9,9 11,6 5 3 7 4 ENE 1023,7 16 0 0,0
10.12.2019 19:00:00 7,1 4,6 4,0 9,9 11,6 5 3 11 6 NE 1023,8 30 0 0,0
10.12.2019 18:00:00 10,0 5,4 8,4 9,8 11,6 8 4 14 8 SE 1024,0 37 0 0,0
10.12.2019 17:00:00 11,0 5,5 10,0 9,7 11,6 8 5 18 10 ESE 1024,5 39 35 0,0
10.12.2019 16:00:00 12,4 6,4 13,3 9,5 11,6 11 6 21 11 SE 1025,1 20 56 0,0
10.12.2019 15:00:00 12,8 6,4 14,9 9,3 11,6 10 6 16 8 SSE 1025,9 19 58 0,0
10.12.2019 14:00:00 13,6 8,2 13,5 9,1 11,6 3 2 13 7 ENE 1027,1 19 49 0,0
10.12.2019 13:00:00 12,3 8,0 13,9 9,1 11,6 8 4 14 7 ESE 1027,9 16 60 0,0
10.12.2019 12:00:00 10,8 10,2 10,9 9,1 11,6 5 3 9 5 ESE 1029,2 9 60 0,0
10.12.2019 11:00:00 8,1 7,7 7,7 9,1 11,6 3 1 8 5 E 1030,4 19 57 0,0
10.12.2019 10:00:00 5,9 5,5 3,9 9,3 11,6 4 2 10 5 E 1030,7 3,7 21 0,0
10.12.2019 09:00:00 3,9 3,3 3,2 9,4 11,6 5 3 9 5 E 1030,7 0,3 0 0,0
10.12.2019 08:00:00 4,3 3,7 2,3 9,5 11,6 6 3 12 7 E 1030,8 0,3 0 0,0
10.12.2019 07:00:00 5,3 4,7 1,9 9,6 11,5 4 2 7 4 NE 1031,0 0,5 0 0,0
10.12.2019 06:00:00 4,8 4,1 2,6 9,7 11,6 2 1 6 3 E 1031,3 0,5 0 0,0
10.12.2019 05:00:00 6,9 6,2 2,5 9,7 11,5 0 0 5 3 N 1031,9 0,5 0 0,0
10.12.2019 04:00:00 7,4 6,5 4,1 9,7 11,5 0 0 6 3 N 1032,2 0,5 0 0,0
10.12.2019 03:00:00 8,5 7,6 7,3 9,7 11,5 3 2 6 3 S 1032,1 11 0 0,0
10.12.2019 02:00:00 8,0 6,9 7,1 9,8 11,5 2 1 9 5 ENE 1031,9 9 0 0,0
10.12.2019 01:00:00 8,0 6,8 6,9 9,8 11,5 6 3 17 9 W 1032,0 10 0 0,0
10.12.2019 00:00:00 8,7 7,3 7,4 9,9 11,5 13 7 17 9 W 1031,6 8 0 0,2
09.12.2019 23:00:00 8,7 6,7 7,3 9,9 11,5 7 4 10 5 W 1031,3 14 0 0,0
09.12.2019 22:00:00 8,9 6,5 8,3 9,9 11,5 9 5 20 11 N 1031,2 14 0 0,0
09.12.2019 21:00:00 9,4 6,5 8,2 10,0 11,5 18 10 30 16 W 1030,4 16 0 0,0
09.12.2019 20:00:00 9,5 6,6 7,9 10,1 11,5 11 6 24 13 WSW 1029,8 16 0 0,0
09.12.2019 19:00:00 9,2 6,8 8,1 10,1 11,5 16 9 29 16 W 1028,9 17 0 0,0
09.12.2019 18:00:00 9,8 6,5 8,9 10,0 11,5 19 10 38 21 W 1028,0 17 0 0,0
09.12.2019 17:00:00 11,3 6,4 10,6 10,0 11,5 17 9 37 20 W 1027,3 16 25 0,0
09.12.2019 16:00:00 11,2 7,1 9,8 9,9 11,5 24 13 48 26 WNW 1026,5 15 28 0,2
09.12.2019 15:00:00 11,7 7,6 10,6 9,8 11,5 28 15 46 25 W 1025,9 15 42 0,0
09.12.2019 14:00:00 11,7 8,9 10,0 9,7 11,5 27 15 45 25 W 1025,2 16 13 0,0
09.12.2019 13:00:00 10,6 7,8 9,2 9,7 11,5 28 15 59 32 W 1025,5 9 9 0,6
09.12.2019 12:00:00 10,6 7,5 9,2 9,6 11,5 35 19 63 34 WNW 1025,9 11 13 0,6
09.12.2019 11:00:00 11,4 7,7 9,7 9,6 11,5 26 14 66 35 W 1025,1 16 30 0,2
09.12.2019 10:00:00 10,9 8,8 8,7 9,6 11,4 15 8 24 13 WSW 1024,3 11 21 0,0
09.12.2019 09:00:00 9,7 7,6 7,7 9,7 11,4 16 9 44 24 W 1023,7 12 0 0,2
09.12.2019 08:00:00 9,2 6,8 7,7 9,7 11,5 23 12 61 33 W 1022,7 14 0 0,4
09.12.2019 07:00:00 9,9 8,2 8,2 9,7 11,5 21 11 78 42 WSW 1022,2 18 0 1,2
09.12.2019 06:00:00 10,6 8,5 9,4 9,7 11,4 31 17 55 30 W 1022,0 5 0 1,2
09.12.2019 05:00:00 10,9 8,5 8,9 9,7 11,4 19 11 48 26 WSW 1022,0 15 0 0,4
09.12.2019 04:00:00 10,8 8,9 8,9 9,7 11,4 18 10 44 24 W 1022,6 14 0 0,0
09.12.2019 03:00:00 10,4 8,2 9,5 9,7 11,5 25 14 46 25 W 1022,8 5 0 0,6
09.12.2019 02:00:00 11,4 8,1 10,4 9,7 11,4 17 9 31 17 WSW 1022,7 13 0 0,0
09.12.2019 01:00:00 11,4 8,3 9,2 9,7 11,4 16 8 26 14 SW 1023,0 11 0 0,0
09.12.2019 00:00:00 10,3 7,9 9,1 9,8 11,4 11 6 22 12 WSW 1023,6 12 0 0,0
08.12.2019 23:00:00 10,6 8,2 9,2 9,8 11,4 14 7 25 14 WSW 1023,7 13 0 0,0
08.12.2019 22:00:00 10,2 8,5 8,7 9,8 11,4 13 7 24 13 WSW 1023,9 7 0 0,0
08.12.2019 21:00:00 10,8 9,1 9,1 9,7 11,4 13 7 26 14 WSW 1023,2 11 0 0,0
08.12.2019 20:00:00 11,2 9,8 10,0 9,7 11,4 13 7 27 15 WSW 1023,2 15 0 0,0
08.12.2019 19:00:00 11,4 10,3 10,1 9,6 11,4 16 9 32 17 W 1022,2 16 0 0,0
08.12.2019 18:00:00 13,0 12,2 12,2 9,5 11,4 19 10 34 18 W 1020,8 20 0 0,2
08.12.2019 17:00:00 12,5 11,6 11,8 9,4 11,4 16 9 29 16 WSW 1019,8 3,2 0 1,2
08.12.2019 16:00:00 12,2 11,1 11,7 9,2 11,4 15 8 27 15 WSW 1019,5 7 0 2,2
08.12.2019 15:00:00 12,3 11,0 11,8 9,1 11,4 14 8 29 15 WSW 1019,4 6 0 1,6
08.12.2019 14:00:00 12,5 11,2 12,1 8,9 11,4 8 4 15 8 WSW 1019,8 14 0 0,2
08.12.2019 13:00:00 12,4 9,9 11,9 8,8 11,4 10 5 27 15 WSW 1020,4 4,6 0 0,0
08.12.2019 12:00:00 13,0 8,7 13,8 8,8 11,4 6 4 11 6 SW 1020,9 60 0 0,0
08.12.2019 11:00:00 11,8 11,0 12,7 8,8 11,4 3 2 9 5 WSW 1021,4 41 36 0,0
08.12.2019 10:00:00 8,9 8,4 6,0 8,8 11,4 4 2 6 4 E 1021,2 15 58 0,0
08.12.2019 09:00:00 5,2 4,8 2,7 8,9 11,4 4 2 5 3 ENE 1021,4 0,3 16 0,0
08.12.2019 08:00:00 6,1 5,5 2,1 8,9 11,4 4 2 5 3 E 1021,5 1,0 0 0,0
08.12.2019 07:00:00 5,1 4,5 2,7 9,0 11,4 5 3 6 3 E 1021,4 0,2 0 0,0
08.12.2019 06:00:00 6,7 6,1 3,9 9,0 11,4 4 2 7 4 ESE 1021,4 0,3 0 0,0
08.12.2019 05:00:00 8,4 7,8 7,8 9,0 11,4 2 1 4 2 NNW 1022,0 4,8 0 0,0
08.12.2019 04:00:00 8,4 7,8 7,8 9,0 11,4 0 0 5 3 N 1022,5 7 0 0,0
08.12.2019 03:00:00 7,7 6,9 7,1 9,1 11,4 3 1 5 3 ESE 1023,0 5 0 0,0
08.12.2019 02:00:00 7,1 6,4 2,6 9,2 11,4 2 1 6 3 E 1023,2 5 0 0,0
08.12.2019 01:00:00 6,6 5,7 2,9 9,2 11,4 0 0 5 3 N 1023,6 0,1 0 0,0
08.12.2019 00:00:00 8,3 7,2 5,4 9,2 11,4 0 0 6 3 N 1024,0 3,9 0 0,0
07.12.2019 23:00:00 10,0 8,9 8,4 9,2 11,4 4 2 7 4 SSE 1023,6 9 0 0,0
07.12.2019 22:00:00 10,3 9,4 7,1 9,2 11,4 5 3 10 5 S 1024,0 11 0 0,0
07.12.2019 21:00:00 10,0 8,9 8,5 9,2 11,5 0 0 6 3 N 1024,0 3,1 0 0,0
07.12.2019 20:00:00 10,3 9,1 9,5 9,1 11,4 3 1 4 2 E 1024,3 3,4 0 0,0
07.12.2019 19:00:00 10,7 9,0 9,4 9,0 11,4 2 1 3 2 ESE 1023,9 3,8 0 0,0
07.12.2019 18:00:00 11,8 9,9 10,7 8,8 11,5 0 0 4 2 N 1023,8 4,3 0 0,0
07.12.2019 17:00:00 12,7 10,1 12,6 8,6 11,4 0 0 5 3 N 1023,4 7 5 0,0
07.12.2019 16:00:00 12,9 10,1 12,8 8,4 11,4 3 1 13 7 NW 1023,0 6 0 0,0
07.12.2019 15:00:00 12,9 9,7 13,4 8,2 11,5 9 5 15 8 WNW 1022,8 10 0 0,0
07.12.2019 14:00:00 13,3 10,7 14,7 8,0 11,5 6 3 11 6 WSW 1023,3 20 0 0,0
07.12.2019 13:00:00 12,4 11,8 13,0 7,9 11,5 5 3 9 5 SW 1024,1 27 0 0,0
07.12.2019 12:00:00 10,6 10,1 10,5 7,9 11,5 5 3 7 4 SSE 1024,3 14 0 0,0
07.12.2019 11:00:00 9,3 8,8 8,4 7,9 11,5 2 1 9 5 SW 1024,7 15 0 0,0
07.12.2019 10:00:00 7,9 7,5 6,2 7,9 11,5 0 0 8 4 N 1024,6 8 0 0,0
07.12.2019 09:00:00 5,9 5,5 1,6 8,0 11,5 2 1 4 2 SE 1024,2 4,1 0 0,0
07.12.2019 08:00:00 1,8 1,2 0,5 8,0 11,5 4 2 5 3 E 1024,1 0,3 0 0,0
07.12.2019 07:00:00 2,6 1,9 1,0 8,1 11,5 4 2 5 3 E 1023,6 0,1 0 0,0
07.12.2019 06:00:00 4,3 3,9 0,5 8,1 11,5 3 2 7 4 S 1023,1 0,8 0 0,0
07.12.2019 05:00:00 4,7 4,3 3,1 8,2 11,5 4 2 5 3 E 1023,1 3,5 0 0,0
07.12.2019 04:00:00 2,9 2,5 1,2 8,3 11,5 4 2 7 4 ENE 1023,4 0,6 0 0,0
07.12.2019 03:00:00 3,3 2,7 1,8 8,4 11,5 3 2 7 4 ENE 1023,7 2,1 0 0,0
07.12.2019 02:00:00 4,1 3,5 2,7 8,4 11,5 2 1 6 3 E 1023,3 2,9 0 0,0
07.12.2019 01:00:00 4,7 4,1 3,2 8,4 11,5 0 0 4 2 N 1023,5 1,9 0 0,0
07.12.2019 00:00:00 5,2 4,6 4,7 8,5 11,5 0 0 6 3 N 1024,0 4,4 0 0,0
06.12.2019 23:00:00 4,6 4,0 3,3 8,6 11,6 0 0 4 2 N 1023,6 0,1 0 0,0
06.12.2019 22:00:00 5,0 4,3 4,1 8,6 11,5 2 1 8 5 NE 1023,3 0,1 0 0,0
06.12.2019 21:00:00 5,4 4,5 2,8 8,6 11,5 6 4 10 5 ENE 1022,7 0,2 0 0,0
06.12.2019 20:00:00 6,0 5,0 3,1 8,6 11,5 6 3 12 6 E 1022,1 4,1 0 0,0
06.12.2019 19:00:00 6,7 5,5 2,8 8,6 11,5 4 2 8 4 E 1021,9 1,5 0 0,0
06.12.2019 18:00:00 7,5 5,8 4,7 8,5 11,6 5 3 10 5 NE 1021,9 10 0 0,0
06.12.2019 17:00:00 10,0 7,1 9,4 8,3 11,6 8 5 11 6 E 1021,5 17 54 0,0
06.12.2019 16:00:00 12,5 8,4 14,8 8,1 11,6 7 4 11 6 E 1021,4 20 60 0,0
06.12.2019 15:00:00 12,2 9,0 14,5 7,8 11,6 6 4 13 7 E 1021,8 18 60 0,0
06.12.2019 14:00:00 11,3 10,2 11,4 7,6 11,6 8 4 13 7 E 1022,5 11 45 0,0
06.12.2019 13:00:00 9,8 9,2 11,7 7,5 11,6 10 5 19 10 SE 1023,4 8 40 0,0
06.12.2019 12:00:00 9,3 8,8 8,1 7,4 11,6 6 3 10 5 NE 1024,4 7 36 0,0
06.12.2019 11:00:00 6,2 5,8 5,4 7,4 11,6 4 2 9 5 E 1024,9 2,5 17 0,0
06.12.2019 10:00:00 4,4 4,0 3,7 7,3 11,6 4 2 7 4 NE 1025,0 0,6 0 0,0
06.12.2019 09:00:00 3,1 2,7 2,3 7,4 11,6 4 2 6 3 ENE 1024,6 0,2 0 0,0
06.12.2019 08:00:00 2,1 1,7 2,0 7,4 11,6 3 1 6 3 E 1025,0 0,2 0 0,0
06.12.2019 07:00:00 1,7 1,1 1,8 7,5 11,6 5 3 7 4 N 1025,1 0,2 0 0,0
06.12.2019 06:00:00 1,8 1,2 1,7 7,5 11,6 2 1 7 4 NNE 1024,7 0,2 0 0,0
06.12.2019 05:00:00 1,4 0,8 0,1 7,6 11,6 5 3 6 4 N 1024,9 0,1 0 0,0
06.12.2019 04:00:00 1,3 0,7 0,4 7,7 11,7 0 0 4 2 N 1024,8 0,2 0 0,0
06.12.2019 03:00:00 2,4 1,7 1,9 7,8 11,7 3 1 4 2 SE 1024,6 0,1 0 0,0
06.12.2019 02:00:00 1,9 1,3 -0,5 7,9 11,7 0 0 6 4 N 1024,7 0,1 0 0,0
06.12.2019 01:00:00 0,4 -0,5 -1,4 8,0 11,7 0 0 5 3 N 1024,7 0,2 0 0,0
06.12.2019 00:00:00 1,4 0,5 -1,8 8,1 11,7 3 2 4 2 ENE 1025,1 7 0 0,0
05.12.2019 23:00:00 1,9 1,0 -1,1 8,3 11,7 0 0 3 1 N 1025,1 0,7 0 0,0
05.12.2019 22:00:00 3,0 2,0 -1,4 8,4 11,7 0 0 3 2 N 1024,9 0,7 0 0,0
05.12.2019 21:00:00 3,7 2,5 -0,3 8,4 11,7 0 0 3 1 N 1024,9 4,3 0 0,0
05.12.2019 20:00:00 4,7 3,4 0,4 8,4 11,7 0 0 2 1 N 1024,9 9 0 0,0
05.12.2019 19:00:00 5,5 3,3 0,6 8,4 11,7 0 0 5 3 N 1024,3 4,1 0 0,0
05.12.2019 18:00:00 8,7 5,4 3,3 8,3 11,7 2 1 5 3 W 1023,7 14 0 0,0
05.12.2019 17:00:00 12,6 6,2 11,8 8,1 11,8 4 2 6 3 S 1023,1 30 55 0,0
05.12.2019 16:00:00 13,7 5,8 15,6 7,9 11,8 0 0 10 5 N 1022,7 19 60 0,0
05.12.2019 15:00:00 13,0 7,0 15,4 7,7 11,7 4 2 18 10 NW 1022,6 12 60 0,0
05.12.2019 14:00:00 12,5 7,2 14,1 7,5 11,8 8 4 15 8 W 1023,1 16 60 0,0
05.12.2019 13:00:00 10,8 6,7 10,6 7,4 11,8 9 5 14 8 W 1023,7 18 50 0,0
05.12.2019 12:00:00 8,7 6,8 9,3 7,4 11,8 5 3 10 5 SSW 1024,0 11 9 0,0
05.12.2019 11:00:00 6,5 5,8 7,2 7,4 11,8 6 3 9 5 S 1024,0 8 28 -
05.12.2019 10:00:00 5,0 4,4 3,0 7,4 11,8 0 0 4 2 N 1023,4 4,5 38 0,0
05.12.2019 09:00:00 3,8 3,1 1,0 7,4 11,8 0 0 5 3 N 1023,1 2,4 0 0,0

tt = temperature
td = dewpoint
tt 5cm = temperature 5cm
tt -20cm = temperature -20cm
tt -100cm = temperature -100cm
ff = wind speed
fx = gusts
dd = wind direction
ppp = reduced air pressure
vv = visibility
sd = sunshine duration
rr = precipitation

Next stations